GENESIS 2

Last updated on Wed Sep 03 2025 00:02:14 GMT+0000 (Coordinated Universal Time)

1 31789U 07028A 25245.76246419 .08421675 79462-5 30621-3 0 9993 2 31789 64.4514 105.6622 0014737 268.2433 91.7063 16.42738306 6480

Satellite not in orbit